Change the Weather History Date:

Thursday, April 10, 2014

  Actual Average Record
Temperature  
Mean Temperature 44 °F -  
Max Temperature 52 °F 46 °F 75 °F (1987)
Min Temperature 32 °F 26 °F 8 °F (1960)
Degree Days  
Heating Degree Days 20    
Moisture  
Dew Point 30 °F    
Average Humidity 55    
Maximum Humidity 82    
Minimum Humidity 35    
Precipitation  
Precipitation 0.10 in - - ()
Sea Level Pressure  
Sea Level Pressure 29.63 in    
Wind  
Wind Speed 15 mph (WSW)    
Max Wind Speed 24 mph    
Max Gust Speed 32 mph    
Visibility 10 miles    
Events Rain    
Averages and records for this station are not official NWS values.
T = Trace of Precipitation, MM = Missing Value Source: NWS Daily Summary

Daily Weather History Graph

Daily Weather History Graph

Search for Another Location

Airport or City:

Trip Planner

Search our weather history database for the weather conditions in past years. The results will help you decide how hot, cold, wet, or windy it might be!

Date:

Astronomy

Apr. 10, 2014 Rise Set
Actual Time 7:02 AM EDT 8:19 PM EDT
Civil Twilight 6:32 AM EDT 8:49 PM EDT
Nautical Twilight 5:55 AM EDT 9:26 PM EDT
Astronomical Twilight 5:16 AM EDT 10:06 PM EDT
Moon 3:50 PM EDT (4/10) 4:38 AM EDT (4/10)
Length of Visible Light 14h 17m
Length of Day
13h 16m
Waxing Gibbous, 79% of the Moon is Illuminated
Apr 10
Waxing Gibbous
Apr 15
Full
Apr 22
Last Quarter
Apr 29
New
May 6
First Quarter

Hourly Weather History & Observations

Time (EDT) Temp. Windchill Dew Point Humidity Pressure Visibility Wind Dir Wind Speed Gust Speed Precip Events Conditions
12:54 AM 48.0 °F - 27.0 °F 44% 29.65 in 10.0 mi SSW 18.4 mph 28.8 mph N/A   Mostly Cloudy
1:54 AM 48.0 °F - 27.0 °F 44% 29.62 in 10.0 mi SSW 16.1 mph 27.6 mph N/A   Clear
2:54 AM 48.9 °F - 27.0 °F 43% 29.59 in 10.0 mi SSW 17.3 mph 28.8 mph N/A   Clear
3:54 AM 50.0 °F - 28.0 °F 43% 29.55 in 10.0 mi SSW 19.6 mph 31.1 mph N/A   Clear
4:54 AM 50.0 °F - 28.0 °F 43% 29.51 in 10.0 mi SW 17.3 mph 32.2 mph N/A   Clear
5:54 AM 51.1 °F - 28.9 °F 43% 29.49 in 10.0 mi SW 24.2 mph 31.1 mph N/A   Clear
6:54 AM 50.0 °F - 30.0 °F 46% 29.51 in 10.0 mi SW 16.1 mph 28.8 mph N/A   Mostly Cloudy
7:54 AM 50.0 °F - 30.0 °F 46% 29.52 in 10.0 mi SW 21.9 mph 29.9 mph N/A   Mostly Cloudy
8:54 AM 50.0 °F - 32.0 °F 50% 29.54 in 10.0 mi WSW 15.0 mph 26.5 mph 0.00 in Rain Light Rain
9:54 AM 48.9 °F - 33.1 °F 54% 29.55 in 10.0 mi West 16.1 mph 25.3 mph 0.00 in Rain Light Rain
10:54 AM 42.1 °F 35.7 °F 36.0 °F 79% 29.60 in 5.0 mi WNW 11.5 mph - 0.04 in Rain Light Rain
11:54 AM 43.0 °F 38.2 °F 37.9 °F 82% 29.61 in 10.0 mi SW 8.1 mph - 0.04 in Rain Light Rain
12:54 PM 42.1 °F 37.1 °F 36.0 °F 79% 29.60 in 9.0 mi West 8.1 mph - 0.01 in Rain Light Rain
1:54 PM 45.0 °F 40.1 °F 36.0 °F 71% 29.61 in 10.0 mi SW 9.2 mph - 0.01 in   Mostly Cloudy
2:54 PM 46.9 °F - 35.1 °F 63% 29.62 in 10.0 mi SW 13.8 mph - N/A   Clear
3:54 PM 50.0 °F - 36.0 °F 59% 29.63 in 10.0 mi SW 13.8 mph 20.7 mph N/A   Clear
4:54 PM 51.1 °F - 32.0 °F 48% 29.62 in 10.0 mi SW 13.8 mph 25.3 mph N/A   Clear
5:54 PM 51.1 °F - 28.9 °F 43% 29.64 in 10.0 mi WSW 17.3 mph 31.1 mph N/A   Clear
6:54 PM 52.0 °F - 26.1 °F 37% 29.66 in 10.0 mi SW 15.0 mph 25.3 mph N/A   Clear
7:54 PM 51.1 °F - 24.1 °F 35% 29.68 in 10.0 mi WSW 11.5 mph - N/A   Scattered Clouds
8:12 PM 43.0 °F 35.1 °F 28.0 °F 56% 29.70 in 10.0 mi NW 17.3 mph - N/A   Scattered Clouds
8:54 PM 41.0 °F 35.8 °F 28.0 °F 60% 29.76 in 10.0 mi WNW 8.1 mph - N/A   Clear
9:54 PM 37.0 °F 33.3 °F 27.0 °F 67% 29.82 in 10.0 mi West 4.6 mph - N/A   Clear
10:54 PM 37.0 °F 32.4 °F 26.1 °F 65% 29.85 in 10.0 mi West 5.8 mph - N/A   Clear
11:54 PM 32.0 °F 26.4 °F 25.0 °F 75% 29.87 in 10.0 mi WNW 5.8 mph - N/A   Clear